Location: Erp
(42.9417°N, 1.2009°E)
Time: 14:29:40
(UTC+00:00)

Cosmos 1741 Rocket - Pass Details

Date: 12 January 2026
Orbit: 758 x 777 km, 74.0° (Epoch: 17 February)

Event Time Altitude Azimuth Distance (km) Brightness Sun altitude
Rises 18:42:45 0° 340° (NNW) 3,237 7.4 -21.5°
Reaches altitude 10° 18:45:09 10° 340° (NNW) 2,304 6.6 -21.9°
Maximum altitude 18:50:23 87° 70° (ENE) 767 3.9 -22.8°
Drops below altitude 10° 18:55:34 10° 160° (SSE) 2,281 6.3 -23.8°
Sets 18:57:55 0° 161° (SSE) 3,201 7.1 -24.2°
